GW5454 Weather Reports


time (UTC)temp
C
wind
direction
speed
KPH
gust
KPH
rain 1hr
cm
rain 24hr
cm
rain mn
cm
humidity
%
barometer
mb
20260507182200 23 256 8.0 11.3 0.00 0.00 0.00 39 1014.9
20260507181657 23 202 1.6 3.2 0.00 0.00 0.00 39 1015.0
20260507181154 23 280 6.4 8.0 0.00 0.00 0.00 39 1014.9
20260507180650 23 250 6.4 14.5 0.00 0.00 0.00 38 1014.8
20260507180147 24 257 6.4 11.3 0.00 0.00 0.00 37 1015.0
20260507175643 24 199 0.0 3.2 0.00 0.00 0.00 40 1015.0
20260507175140 24 194 3.2 6.4 0.00 0.00 0.00 36 1015.0
20260507174637 24 178 0.0 3.2 0.00 0.00 0.00 38 1015.3
20260507174136 24 157 3.2 6.4 0.00 0.00 0.00 34 1015.2
20260507173633 25 182 1.6 6.4 0.00 0.00 0.00 33 1015.2
20260507173129 25 189 1.6 3.2 0.00 0.00 0.00 34 1015.1
20260507172626 25 196 4.8 8.0 0.00 0.00 0.00 32 1015.1
20260507172123 24 212 0.0 3.2 0.00 0.00 0.00 34 1015.5
20260507171618 24 193 1.6 3.2 0.00 0.00 0.00 35 1015.4
20260507171115 24 192 1.6 3.2 0.00 0.00 0.00 35 1015.3
20260507170612 24 299 9.7 11.3 0.00 0.00 0.00 33 1015.2
20260507170109 24 187 1.6 6.4 0.00 0.00 0.00 37 1015.3
20260507165604 24 179 1.6 3.2 0.00 0.00 0.00 37 1015.4
20260507165101 23 186 0.0 3.2 0.00 0.00 0.00 36 1015.5
20260507164557 23 182 1.6 6.4 0.00 0.00 0.00 36 1015.4
20260507164054 23 183 3.2 6.4 0.00 0.00 0.00 35 1015.3
20260507163552 23 206 1.6 3.2 0.00 0.00 0.00 38 1015.4
20260507163050 23 183 0.0 6.4 0.00 0.00 0.00 39 1015.5
20260507162549 22 206 1.6 3.2 0.00 0.00 0.00 39 1015.4
20260507162047 22 190 3.2 3.2 0.00 0.00 0.00 41 1015.4
20260507161543 22 182 0.0 3.2 0.00 0.00 0.00 41 1015.3
20260507161040 22 221 1.6 3.2 0.00 0.00 0.00 42 1015.4
20260507160536 21 183 0.0 3.2 0.00 0.00 0.00 42 1015.3
20260507160032 22 319 6.4 8.0 0.00 0.00 0.00 40 1015.4
20260507155528 22 190 1.6 3.2 0.00 0.00 0.00 42 1015.5
20260507155025 21 192 0.0 3.2 0.00 0.00 0.00 43 1015.3
20260507154522 21 188 1.6 6.4 0.00 0.00 0.00 45 1015.2
20260507154019 21 183 0.0 3.2 0.00 0.00 0.00 46 1015.2
20260507153516 21 194 1.6 3.2 0.00 0.00 0.00 45 1015.2
20260507153012 21 190 1.6 6.4 0.00 0.00 0.00 46 1015.4
20260507152508 20 296 1.6 3.2 0.00 0.00 0.00 47 1015.2
20260507152005 20 191 0.0 3.2 0.00 0.00 0.00 47 1015.2
20260507151501 20 201 1.6 6.4 0.00 0.00 0.00 48 1015.4
20260507150958 20 184 0.0 3.2 0.00 0.00 0.00 52 1015.3
20260507150454 19 168 1.6 3.2 0.00 0.00 0.00 54 1015.2
20260507145951 18 194 0.0 3.2 0.00 0.00 0.00 54 1015.1
20260507145446 18 222 1.6 6.4 0.00 0.00 0.00 54 1015.3
20260507144944 18 208 0.0 3.2 0.00 0.00 0.00 56 1015.0
20260507144441 18 229 0.0 6.4 0.00 0.00 0.00 55 1015.2
20260507143938 18 172 1.6 3.2 0.00 0.00 0.00 55 1015.1
20260507143435 18 182 1.6 3.2 0.00 0.00 0.00 55 1015.1
20260507142932 18 179 1.6 3.2 0.00 0.00 0.00 55 1015.1
20260507142427 18 180 0.0 3.2 0.00 0.00 0.00 55 1015.2
20260507141925 17 181 0.0 0.0 0.00 0.00 0.00 57 1015.2
20260507141421 17 175 0.0 3.2 0.00 0.00 0.00 57 1015.2
20260507140918 17 182 0.0 0.0 0.00 0.00 0.00 59 1015.1
20260507140414 17 187 0.0 3.2 0.00 0.00 0.00 60 1015.0
20260507135912 17 188 0.0 3.2 0.00 0.00 0.00 62 1014.8
20260507135408 16 186 0.0 0.0 0.00 0.00 0.00 64 1015.0
20260507134906 16 190 0.0 3.2 0.00 0.00 0.00 64 1015.0
20260507134402 15 186 0.0 3.2 0.00 0.00 0.00 67 1015.0
20260507133858 15 185 0.0 3.2 0.00 0.00 0.00 68 1014.7
20260507133354 14 194 0.0 3.2 0.00 0.00 0.00 70 1014.6
20260507132853 14 266 4.8 8.0 0.00 0.00 0.00 71 1014.7
20260507132349 13 188 0.0 8.0 0.00 0.00 0.00 73 1014.5
20260507131846 13 201 3.2 3.2 0.00 0.00 0.00 74 1014.6
20260507131343 13 197 3.2 8.0 0.00 0.00 0.00 74 1014.4
20260507130840 13 179 3.2 11.3 0.00 0.00 0.00 74 1014.3
20260507130336 13 183 3.2 8.0 0.00 0.00 0.00 74 1014.5
20260507125836 13 216 3.2 8.0 0.00 0.00 0.00 74 1014.2
20260507125333 13 222 4.8 17.7 0.00 0.00 0.00 75 1014.2
20260507124830 13 203 3.2 8.0 0.00 0.00 0.00 74 1014.2
20260507124326 13 215 4.8 8.0 0.00 0.00 0.00 74 1014.3
20260507123825 13 246 6.4 8.0 0.00 0.00 0.00 73 1014.2
20260507123322 13 249 8.0 11.3 0.00 0.00 0.00 74 1014.0
20260507122818 13 186 3.2 6.4 0.00 0.00 0.00 72 1014.2
20260507122313 13 246 3.2 6.4 0.00 0.00 0.00 72 1014.3
20260507121810 13 259 1.6 6.4 0.00 0.00 0.00 72 1014.2
20260507121306 13 192 0.0 3.2 0.00 0.00 0.00 71 1014.2
20260507120802 13 236 3.2 8.0 0.00 0.00 0.00 71 1014.1
20260507120258 13 255 6.4 11.3 0.00 0.00 0.00 71 1014.0
20260507115755 13 198 1.6 6.4 0.00 0.00 0.00 69 1014.0
20260507115250 13 205 1.6 6.4 0.00 0.00 0.00 69 1014.0
20260507114746 13 233 3.2 8.0 0.00 0.00 0.00 69 1013.9
20260507114244 13 253 8.0 11.3 0.00 0.00 0.00 70 1014.1
20260507113741 13 209 3.2 8.0 0.00 0.00 0.00 70 1014.0
20260507113238 13 205 6.4 8.0 0.00 0.00 0.00 70 1013.7
20260507112735 13 264 8.0 14.5 0.00 0.00 0.00 71 1014.0
20260507112232 13 261 6.4 14.5 0.00 0.00 0.00 73 1014.2
20260507111730 12 210 6.4 8.0 0.00 0.00 0.00 75 1014.0
20260507111227 12 192 1.6 6.4 0.00 0.00 0.00 75 1014.0
20260507110722 12 172 0.0 0.0 0.00 0.00 0.00 75 1014.1
20260507110219 12 166 0.0 3.2 0.00 0.00 0.00 77 1014.2
20260507105716 12 185 0.0 8.0 0.00 0.00 0.00 78 1013.9
20260507105212 12 191 1.6 3.2 0.00 0.00 0.00 76 1013.9
20260507104710 12 173 0.0 0.0 0.00 0.00 0.00 74 1014.1
20260507104206 12 171 0.0 0.0 0.00 0.00 0.00 73 1014.1
20260507103702 12 166 0.0 0.0 0.00 0.00 0.00 72 1014.1
20260507103159 13 163 1.6 3.2 0.00 0.00 0.00 72 1014.1
20260507102655 13 10 3.2 8.0 0.00 0.00 0.00 72 1014.2
20260507102152 13 14 6.4 8.0 0.00 0.00 0.00 72 1014.2
20260507101647 13 164 0.0 3.2 0.00 0.00 0.00 72 1013.7
20260507101143 13 270 4.8 6.4 0.00 0.00 0.00 72 1013.8
20260507100641 13 198 1.6 3.2 0.00 0.00 0.00 72 1014.0
20260507100140 13 175 0.0 3.2 0.00 0.00 0.00 71 1013.8
20260507095637 14 180 0.0 0.0 0.00 0.00 0.00 71 1013.6
20260507095133 14 184 0.0 3.2 0.00 0.00 0.00 69 1013.9
20260507094629 13 190 3.2 6.4 0.00 0.00 0.00 69 1013.8
20260507094126 14 189 0.0 0.0 0.00 0.00 0.00 68 1013.7
20260507093624 14 182 0.0 3.2 0.00 0.00 0.00 68 1013.6
20260507093123 14 191 0.0 3.2 0.00 0.00 0.00 68 1013.6
20260507092618 14 192 1.6 3.2 0.00 0.00 0.00 68 1013.6
20260507092115 14 205 3.2 6.4 0.00 0.00 0.00 68 1013.5
20260507091612 15 206 3.2 6.4 0.00 0.00 0.00 68 1013.5
20260507091108 14 174 3.2 11.3 0.00 0.00 0.00 68 1013.5
20260507090604 14 188 1.6 3.2 0.00 0.00 0.00 68 1013.8
20260507090101 15 181 0.0 0.0 0.00 0.00 0.00 66 1013.8
20260507085558 15 181 0.0 3.2 0.00 0.00 0.00 65 1013.6
20260507085055 15 194 1.6 3.2 0.00 0.00 0.00 66 1013.7
20260507084551 15 202 1.6 6.4 0.00 0.00 0.00 66 1013.7
20260507084048 15 194 0.0 3.2 0.00 0.00 0.00 67 1013.7
20260507083544 15 189 0.0 3.2 0.00 0.00 0.00 67 1013.6
20260507083042 15 207 0.0 3.2 0.00 0.00 0.00 67 1013.5
20260507082537 14 210 3.2 6.4 0.00 0.00 0.00 68 1013.5
20260507082034 14 271 1.6 6.4 0.00 0.00 0.00 70 1013.5
20260507081530 13 213 3.2 6.4 0.00 0.00 0.00 71 1013.4
20260507081028 14 196 0.0 3.2 0.00 0.00 0.00 69 1013.6
20260507080523 14 194 0.0 3.2 0.00 0.00 0.00 68 1013.7
20260507080020 15 194 0.0 0.0 0.00 0.00 0.00 67 1013.5
20260507075515 15 194 0.0 3.2 0.00 0.00 0.00 67 1013.6
20260507075012 15 191 0.0 0.0 0.00 0.00 0.00 66 1013.7
20260507074509 15 196 0.0 3.2 0.00 0.00 0.00 65 1013.6
20260507074008 16 190 0.0 0.0 0.00 0.00 0.00 61 1013.4
20260507073503 16 191 0.0 0.0 0.00 0.00 0.00 59 1013.4
20260507072959 17 191 0.0 0.0 0.00 0.00 0.00 59 1013.3
20260507072457 17 102 0.0 3.2 0.00 0.00 0.00 58 1013.3
20260507071954 17 331 4.8 6.4 0.00 0.00 0.00 59 1013.2
20260507071451 16 190 3.2 8.0 0.00 0.00 0.00 60 1013.1
20260507070948 16 189 0.0 6.4 0.00 0.00 0.00 61 1013.0
20260507070445 16 196 0.0 3.2 0.00 0.00 0.00 63 1012.9
20260507065942 16 217 1.6 3.2 0.00 0.00 0.00 61 1012.8
20260507065439 16 222 3.2 3.2 0.00 0.00 0.00 61 1012.8
20260507064936 16 200 0.0 3.2 0.00 0.00 0.00 60 1012.5
20260507064434 17 235 0.0 3.2 0.00 0.00 0.00 59 1012.6
20260507063932 17 190 3.2 6.4 0.00 0.00 0.00 59 1012.5
20260507063428 17 203 4.8 8.0 0.00 0.00 0.00 60 1012.5
20260507062925 17 212 1.6 8.0 0.00 0.00 0.00 60 1012.2
20260507062423 17 191 0.0 6.4 0.00 0.00 0.00 60 1012.3
20260507061920 17 195 3.2 3.2 0.00 0.00 0.00 59 1012.4
20260507061418 17 214 1.6 11.3 0.00 0.00 0.00 59 1012.5
20260507060916 17 288 1.6 14.5 0.00 0.00 0.00 59 1012.3
20260507060412 17 154 9.7 17.7 0.00 0.00 0.00 59 1012.4
20260507055909 17 334 6.4 11.3 0.00 0.00 0.00 59 1012.4
20260507055404 17 183 6.4 14.5 0.00 0.00 0.00 58 1012.5
20260507054902 17 205 6.4 11.3 0.00 0.00 0.00 59 1012.5
20260507054357 17 218 6.4 8.0 0.00 0.00 0.00 59 1012.6
20260507053855 17 175 6.4 11.3 0.00 0.00 0.00 58 1012.5
20260507053352 17 226 11.3 17.7 0.00 0.00 0.00 59 1012.5
20260507052851 18 124 8.0 14.5 0.00 0.00 0.00 58 1012.4
20260507052348 18 178 0.0 3.2 0.00 0.00 0.00 57 1012.6
20260507051845 18 183 0.0 3.2 0.00 0.00 0.00 55 1012.6
20260507051343 18 186 3.2 6.4 0.00 0.00 0.00 55 1012.6
20260507050839 18 185 3.2 6.4 0.00 0.00 0.00 55 1012.6
20260507050336 17 110 6.4 8.0 0.00 0.00 0.00 54 1012.5
20260507045833 17 168 0.0 3.2 0.00 0.00 0.00 52 1012.6
20260507045329 18 174 0.0 0.0 0.00 0.00 0.00 53 1012.3
20260507044826 18 185 6.4 11.3 0.00 0.00 0.00 53 1012.5
20260507044323 18 170 1.6 6.4 0.00 0.00 0.00 48 1012.2
20260507043819 18 172 0.0 3.2 0.00 0.00 0.00 45 1012.3
20260507043316 18 172 0.0 0.0 0.00 0.00 0.00 46 1012.4
20260507042812 18 188 0.0 6.4 0.00 0.00 0.00 45 1012.3
20260507042308 19 178 0.0 3.2 0.00 0.00 0.00 46 1012.4
20260507041805 19 173 0.0 6.4 0.00 0.00 0.00 45 1012.2
20260507041301 20 171 0.0 0.0 0.00 0.00 0.00 44 1012.2
20260507040758 20 161 0.0 3.2 0.00 0.00 0.00 44 1012.1
20260507040254 21 191 3.2 6.4 0.00 0.00 0.00 41 1012.1
20260507035751 21 184 0.0 3.2 0.00 0.00 0.00 37 1011.8
20260507035246 22 190 0.0 0.0 0.00 0.00 0.00 37 1011.7
20260507034744 22 192 1.6 6.4 0.00 0.00 0.00 35 1011.5
20260507034240 22 205 1.6 8.0 0.00 0.00 0.00 35 1011.7
20260507033739 22 243 3.2 14.5 0.00 0.00 0.00 34 1011.6
20260507033236 23 287 6.4 11.3 0.00 0.00 0.00 34 1011.4
20260507032733 23 319 6.4 11.3 0.00 0.00 0.00 34 1011.6
20260507032229 23 288 9.7 17.7 0.00 0.00 0.00 33 1011.3
20260507031726 23 217 12.9 20.9 0.00 0.00 0.00 34 1011.3
20260507031223 23 188 4.8 14.5 0.00 0.00 0.00 36 1011.1
20260507030720 22 282 3.2 6.4 0.00 0.00 0.00 38 1011.1
20260507030217 22 318 6.4 11.3 0.00 0.00 0.00 37 1011.1
20260507025714 22 293 6.4 8.0 0.00 0.00 0.00 38 1010.9
20260507025211 23 187 1.6 3.2 0.00 0.00 0.00 39 1010.8
20260507024709 24 186 1.6 8.0 0.00 0.00 0.00 37 1010.8
20260507024206 25 189 1.6 14.5 0.00 0.00 0.00 34 1010.9
20260507023701 25 301 6.4 11.3 0.00 0.00 0.00 33 1010.7
20260507023159 25 229 8.0 14.5 0.00 0.00 0.00 33 1010.8
20260507022656 25 291 4.8 17.7 0.00 0.00 0.00 32 1010.7
20260507022152 25 312 8.0 14.5 0.00 0.00 0.00 32 1010.6
20260507021648 25 249 4.8 14.5 0.00 0.00 0.00 32 1010.7
20260507021143 25 311 9.7 14.5 0.00 0.00 0.00 31 1010.5
20260507020642 26 269 6.4 14.5 0.00 0.00 0.00 31 1010.3
20260507020138 26 323 12.9 17.7 0.00 0.00 0.00 30 1010.5
20260507015637 26 321 6.4 11.3 0.00 0.00 0.00 31 1010.5
20260507015133 26 163 6.4 11.3 0.00 0.00 0.00 30 1010.4
20260507014630 26 306 4.8 8.0 0.00 0.00 0.00 32 1010.3
20260507014126 25 140 8.0 14.5 0.00 0.00 0.00 31 1010.2
20260507013623 25 290 4.8 6.4 0.00 0.00 0.00 35 1010.2
20260507013120 26 184 0.0 0.0 0.00 0.00 0.00 41 1010.4
20260507012617 26 175 0.0 3.2 0.00 0.00 0.00 39 1010.2
20260507012113 26 187 0.0 3.2 0.00 0.00 0.00 39 1010.2
20260507011611 26 186 0.0 0.0 0.00 0.00 0.00 38 1010.3
20260507011107 26 212 1.6 11.3 0.00 0.00 0.00 38 1010.3
20260507010602 26 318 22.5 32.2 0.00 0.00 0.00 40 1010.3
20260507010058 25 293 16.1 20.9 0.00 0.00 0.00 43 1010.3
20260507005556 25 236 9.7 17.7 0.00 0.00 0.00 43 1009.6
20260507005051 25 59 8.0 20.9 0.00 0.00 0.00 42 1009.3
20260507004549 26 207 8.0 20.9 0.00 0.00 0.00 42 1009.3
20260507004046 25 165 6.4 20.9 0.00 0.00 0.00 42 1009.4
20260507003542 26 234 6.4 17.7 0.00 0.00 0.00 42 1009.4
20260507003037 26 210 12.9 30.6 0.00 0.00 0.00 42 1009.6
20260507002534 26 261 9.7 17.7 0.00 0.00 0.00 41 1009.4
20260507002025 26 217 16.1 24.1 0.00 0.00 0.00 41 1009.3
20260507001521 26 223 12.9 20.9 0.00 0.00 0.00 41 1009.5
20260507001018 26 253 11.3 20.9 0.00 0.00 0.00 40 1009.4
20260507000514 26 182 8.0 30.6 0.00 0.00 0.00 40 1009.4
20260507000010 26 277 12.9 20.9 0.00 0.00 0.00 40 1009.3
20260506235507 26 200 8.0 20.9 0.00 0.00 0.00 40 1009.3
20260506235003 26 84 8.0 20.9 0.00 0.00 0.00 40 1009.4
20260506234500 26 240 11.3 24.1 0.00 0.00 0.00 39 1009.4
20260506233958 26 39 3.2 17.7 0.00 0.00 0.00 40 1009.5
20260506233454 26 176 14.5 27.4 0.00 0.00 0.00 40 1009.4
20260506232951 27 279 9.7 17.7 0.00 0.00 0.00 40 1009.6
20260506232447 27 201 4.8 17.7 0.00 0.00 0.00 40 1009.7
20260506231943 27 278 14.5 27.4 0.00 0.00 0.00 39 1009.8
20260506231441 27 230 11.3 20.9 0.00 0.00 0.00 37 1009.9
20260506230938 28 251 6.4 20.9 0.00 0.00 0.00 37 1009.9
20260506230434 28 264 14.5 17.7 0.00 0.00 0.00 37 1009.9
20260506225931 28 253 6.4 11.3 0.00 0.00 0.00 35 1009.9
20260506225428 28 120 9.7 20.9 0.00 0.00 0.00 37 1010.1
20260506224925 28 192 12.9 20.9 0.00 0.00 0.00 36 1010.1
20260506224422 27 251 11.3 20.9 0.00 0.00 0.00 35 1010.1
20260506223918 27 192 8.0 14.5 0.00 0.00 0.00 35 1010.2
20260506223414 27 239 8.0 11.3 0.00 0.00 0.00 36 1010.4
20260506222911 27 185 4.8 14.5 0.00 0.00 0.00 37 1010.3
20260506222408 27 269 4.8 11.3 0.00 0.00 0.00 36 1010.5
20260506221905 27 275 14.5 35.4 0.00 0.00 0.00 34 1010.1
20260506221402 27 236 11.3 20.9 0.00 0.00 0.00 34 1010.4
20260506220859 27 223 9.7 24.1 0.00 0.00 0.00 35 1010.7
20260506220355 27 277 14.5 17.7 0.00 0.00 0.00 33 1010.6
20260506215852 27 273 14.5 20.9 0.00 0.00 0.00 33 1010.7
20260506215347 27 165 12.9 24.1 0.00 0.00 0.00 31 1010.6
20260506214844 27 131 8.0 32.2 0.00 0.00 0.00 33 1010.7
20260506214341 27 196 11.3 24.1 0.00 0.00 0.00 35 1010.8
20260506213839 27 192 16.1 20.9 0.00 0.00 0.00 36 1010.9
20260506213336 27 128 12.9 27.4 0.00 0.00 0.00 34 1011.0
20260506212833 27 204 19.3 27.4 0.00 0.00 0.00 35 1011.0
20260506212329 27 259 9.7 17.7 0.00 0.00 0.00 35 1011.3
20260506211824 27 220 3.2 14.5 0.00 0.00 0.00 36 1011.2
20260506211320 27 215 9.7 27.4 0.00 0.00 0.00 35 1011.0
20260506210818 27 191 6.4 20.9 0.00 0.00 0.00 35 1011.3
20260506210314 27 185 12.9 24.1 0.00 0.00 0.00 34 1011.2
20260506205812 27 195 14.5 20.9 0.00 0.00 0.00 34 1011.4
20260506205307 27 281 17.7 24.1 0.00 0.00 0.00 35 1011.4
20260506204804 27 211 3.2 11.3 0.00 0.00 0.00 36 1011.5
20260506204302 27 234 16.1 24.1 0.00 0.00 0.00 36 1011.4
20260506203759 27 283 6.4 17.7 0.00 0.00 0.00 36 1011.3
20260506203257 27 188 9.7 20.9 0.00 0.00 0.00 36 1011.2
20260506202753 27 245 16.1 24.1 0.00 0.00 0.00 36 1011.3
20260506202250 27 170 14.5 32.2 0.00 0.00 0.00 35 1011.5
20260506201747 27 99 8.0 30.6 0.00 0.00 0.00 35 1011.5
20260506201243 27 237 9.7 20.9 0.00 0.00 0.00 35 1011.5
20260506200741 27 268 9.7 11.3 0.00 0.00 0.00 36 1011.5
20260506200237 28 290 8.0 24.1 0.00 0.00 0.00 34 1011.5
20260506195733 28 264 8.0 11.3 0.00 0.00 0.00 35 1011.8
20260506195230 27 194 3.2 11.3 0.00 0.00 0.00 35 1011.9
20260506194727 27 194 3.2 11.3 0.00 0.00 0.00 37 1011.9
20260506194224 27 184 8.0 11.3 0.00 0.00 0.00 35 1011.8
20260506193722 26 343 6.4 14.5 0.00 0.00 0.00 36 1011.9
20260506193218 26 203 8.0 20.9 0.00 0.00 0.00 36 1011.8
20260506192715 26 239 4.8 14.5 0.00 0.00 0.00 39 1012.0
20260506192211 26 193 1.6 14.5 0.00 0.00 0.00 40 1012.1
20260506191703 26 170 4.8 14.5 0.00 0.00 0.00 39 1011.9
20260506191159 26 191 1.6 8.0 0.00 0.00 0.00 39 1012.0
20260506190656 26 243 11.3 17.7 0.00 0.00 0.00 40 1012.0
20260506190152 25 207 3.2 11.3 0.00 0.00 0.00 41 1012.0
20260506185650 25 145 9.7 20.9 0.00 0.00 0.00 40 1012.0
20260506185146 25 207 4.8 17.7 0.00 0.00 0.00 43 1012.1
20260506184639 25 219 8.0 14.5 0.00 0.00 0.00 42 1012.2
20260506184136 25 256 9.7 20.9 0.00 0.00 0.00 41 1012.4
20260506183632 25 268 8.0 14.5 0.00 0.00 0.00 43 1012.2
20260506183128 25 203 4.8 17.7 0.00 0.00 0.00 43 1012.2
20260506182626 25 239 6.4 17.7 0.00 0.00 0.00 44 1012.2